Time,TemperatureF,DewpointF,PressureIn,WindDirection,WindDirectionDegrees,WindSpeedMPH,WindSpeedGustMPH,Humidity,HourlyPrecipIn,Conditions,Clouds,dailyrainin,SoftwareType,DateUTC
2013-07-05 00:03:00,74.8,70.7,30.16,NNE,22,1.1,-999.0,87,-99.99,,,0.00,Acu-Link.com,2013-07-05 04:03:00,
2013-07-05 00:18:00,74.3,70.5,30.16,SSW,202,0.0,-999.0,88,-99.99,,,0.00,Acu-Link.com,2013-07-05 04:18:00,
2013-07-05 00:33:00,73.4,70.3,30.16,SE,135,0.0,-999.0,90,-99.99,,,0.00,Acu-Link.com,2013-07-05 04:33:00,
2013-07-05 00:48:00,72.9,70.4,30.15,North,0,2.2,-999.0,92,-99.99,,,0.00,Acu-Link.com,2013-07-05 04:48:00,
2013-07-05 01:04:00,72.1,70.3,30.16,NNW,337,1.1,-999.0,94,-99.99,,,0.00,Acu-Link.com,2013-07-05 05:04:00,
2013-07-05 01:19:00,71.8,70.3,30.16,ESE,112,0.0,-999.0,95,-99.99,,,0.00,Acu-Link.com,2013-07-05 05:19:00,
2013-07-05 01:34:00,71.4,70.2,30.16,ESE,112,0.0,-999.0,96,-99.99,,,0.00,Acu-Link.com,2013-07-05 05:34:00,
2013-07-05 01:49:00,71.2,70.6,30.16,ESE,112,0.0,-999.0,98,-99.99,,,0.00,Acu-Link.com,2013-07-05 05:49:00,
2013-07-05 02:04:00,71.1,70.5,30.15,NW,315,0.0,-999.0,98,-99.99,,,0.00,Acu-Link.com,2013-07-05 06:04:00,
2013-07-05 02:19:00,70.9,70.3,30.16,North,0,0.0,-999.0,98,-99.99,,,0.00,Acu-Link.com,2013-07-05 06:19:00,
2013-07-05 02:34:00,70.7,70.4,30.16,SW,225,0.0,-999.0,99,-99.99,,,0.00,Acu-Link.com,2013-07-05 06:34:00,
2013-07-05 02:49:00,70.5,70.2,30.15,SSE,157,0.0,-999.0,99,-99.99,,,0.00,Acu-Link.com,2013-07-05 06:49:00,
2013-07-05 03:04:00,70.3,70.0,30.16,SW,225,0.0,-999.0,99,-99.99,,,0.00,Acu-Link.com,2013-07-05 07:04:00,
2013-07-05 03:19:00,70.3,70.0,30.15,ESE,112,0.0,-999.0,99,-99.99,,,0.00,Acu-Link.com,2013-07-05 07:19:00,
2013-07-05 03:34:00,70.2,69.9,30.16,South,180,0.0,-999.0,99,-99.99,,,0.00,Acu-Link.com,2013-07-05 07:34:00,
2013-07-05 03:49:00,69.8,69.5,30.16,ESE,112,0.0,-999.0,99,-99.99,,,0.00,Acu-Link.com,2013-07-05 07:49:00,
2013-07-05 04:04:00,69.6,69.3,30.16,SE,135,0.0,-999.0,99,-99.99,,,0.00,Acu-Link.com,2013-07-05 08:04:00,
2013-07-05 04:19:00,69.6,69.3,30.16,West,270,0.0,-999.0,99,-99.99,,,0.00,Acu-Link.com,2013-07-05 08:19:00,
2013-07-05 04:35:00,69.4,69.1,30.16,WNW,292,2.2,-999.0,99,-99.99,,,0.00,Acu-Link.com,2013-07-05 08:35:00,
2013-07-05 04:50:00,69.3,69.0,30.16,SE,135,0.0,-999.0,99,-99.99,,,0.00,Acu-Link.com,2013-07-05 08:50:00,
2013-07-05 05:05:00,69.3,69.0,30.16,WNW,292,0.0,-999.0,99,-99.99,,,0.00,Acu-Link.com,2013-07-05 09:05:00,
2013-07-05 05:20:00,69.1,68.8,30.17,WNW,292,0.0,-999.0,99,-99.99,,,0.00,Acu-Link.com,2013-07-05 09:20:00,
2013-07-05 05:35:00,68.7,68.4,30.17,WNW,292,0.0,-999.0,99,-99.99,,,0.00,Acu-Link.com,2013-07-05 09:35:00,
2013-07-05 05:50:00,68.5,68.2,30.18,WNW,292,0.0,-999.0,99,-99.99,,,0.00,Acu-Link.com,2013-07-05 09:50:00,
2013-07-05 06:05:00,68.5,68.2,30.17,WNW,292,0.0,-999.0,99,-99.99,,,0.00,Acu-Link.com,2013-07-05 10:05:00,
2013-07-05 06:20:00,68.7,68.4,30.18,SW,225,0.0,-999.0,99,-99.99,,,0.00,Acu-Link.com,2013-07-05 10:20:00,
2013-07-05 06:35:00,69.3,69.0,30.18,North,0,0.0,-999.0,99,-99.99,,,0.00,Acu-Link.com,2013-07-05 10:35:00,
2013-07-05 06:51:00,70.0,69.7,30.18,NNW,337,0.0,-999.0,99,-99.99,,,0.00,Acu-Link.com,2013-07-05 10:51:00,
2013-07-05 07:06:00,71.1,70.8,30.18,SE,135,1.6,-999.0,99,-99.99,,,0.00,Acu-Link.com,2013-07-05 11:06:00,
2013-07-05 07:21:00,72.1,71.8,30.19,SE,135,1.6,-999.0,99,-99.99,,,0.00,Acu-Link.com,2013-07-05 11:21:00,
2013-07-05 07:36:00,73.9,72.4,30.18,NNW,337,1.6,-999.0,95,-99.99,,,0.00,Acu-Link.com,2013-07-05 11:36:00,
2013-07-05 07:51:00,75.7,72.6,30.18,NNW,337,1.6,-999.0,90,-99.99,,,0.00,Acu-Link.com,2013-07-05 11:51:00,
2013-07-05 08:06:00,77.5,72.7,30.18,West,270,3.1,-999.0,85,-99.99,,,0.00,Acu-Link.com,2013-07-05 12:06:00,
2013-07-05 08:21:00,77.9,72.3,30.18,ESE,112,1.6,-999.0,83,-99.99,,,0.00,Acu-Link.com,2013-07-05 12:21:00,
2013-07-05 08:36:00,78.6,72.7,30.18,NNE,22,1.6,-999.0,82,-99.99,,,0.00,Acu-Link.com,2013-07-05 12:36:00,
2013-07-05 08:51:00,79.7,72.6,30.18,WNW,292,1.6,-999.0,79,-99.99,,,0.00,Acu-Link.com,2013-07-05 12:51:00,
2013-07-05 09:06:00,80.1,73.3,30.18,WNW,292,3.1,-999.0,80,-99.99,,,0.00,Acu-Link.com,2013-07-05 13:06:00,
2013-07-05 09:21:00,80.4,72.5,30.17,West,270,2.7,-999.0,77,-99.99,,,0.00,Acu-Link.com,2013-07-05 13:21:00,
2013-07-05 09:36:00,81.3,73.0,30.17,WNW,292,2.2,-999.0,76,-99.99,,,0.00,Acu-Link.com,2013-07-05 13:36:00,
2013-07-05 09:51:00,81.0,72.7,30.17,WSW,247,2.7,-999.0,76,-99.99,,,0.00,Acu-Link.com,2013-07-05 13:51:00,
2013-07-05 10:06:00,82.0,72.9,30.16,North,0,2.7,-999.0,74,-99.99,,,0.00,Acu-Link.com,2013-07-05 14:06:00,
2013-07-05 10:21:00,83.8,74.2,30.16,North,0,1.6,-999.0,73,-99.99,,,0.00,Acu-Link.com,2013-07-05 14:21:00,
2013-07-05 10:37:00,83.1,73.1,30.17,South,180,2.7,-999.0,72,-99.99,,,0.00,Acu-Link.com,2013-07-05 14:37:00,
2013-07-05 10:52:00,83.7,73.2,30.16,North,0,4.3,-999.0,71,-99.99,,,0.00,Acu-Link.com,2013-07-05 14:52:00,
2013-07-05 11:07:00,85.3,74.8,30.16,NNW,337,1.6,-999.0,71,-99.99,,,0.00,Acu-Link.com,2013-07-05 15:07:00,
2013-07-05 11:22:00,85.6,74.7,30.17,North,0,2.2,-999.0,70,-99.99,,,0.00,Acu-Link.com,2013-07-05 15:22:00,
2013-07-05 11:37:00,86.4,72.7,30.16,ENE,67,2.7,-999.0,64,-99.99,,,0.00,Acu-Link.com,2013-07-05 15:37:00,
2013-07-05 11:52:00,86.9,74.1,30.15,North,0,2.2,-999.0,66,-99.99,,,0.00,Acu-Link.com,2013-07-05 15:52:00,
2013-07-05 12:07:00,86.0,72.4,30.15,SSW,202,1.6,-999.0,64,-99.99,,,0.00,Acu-Link.com,2013-07-05 16:07:00,
2013-07-05 12:22:00,89.1,72.8,30.15,South,180,4.7,-999.0,59,-99.99,,,0.00,Acu-Link.com,2013-07-05 16:22:00,
2013-07-05 12:37:00,88.3,72.2,30.15,SSE,157,1.6,-999.0,59,-99.99,,,0.00,Acu-Link.com,2013-07-05 16:37:00,
2013-07-05 12:52:00,88.5,72.3,30.14,West,270,3.8,-999.0,59,-99.99,,,0.00,Acu-Link.com,2013-07-05 16:52:00,
2013-07-05 13:07:00,89.1,71.8,30.14,WSW,247,1.6,-999.0,57,-99.99,,,0.00,Acu-Link.com,2013-07-05 17:07:00,
2013-07-05 13:22:00,89.1,71.8,30.13,NW,315,2.7,-999.0,57,-99.99,,,0.00,Acu-Link.com,2013-07-05 17:22:00,
2013-07-05 13:37:00,89.4,72.1,30.13,NNW,337,2.7,-999.0,57,-99.99,,,0.00,Acu-Link.com,2013-07-05 17:37:00,
2013-07-05 13:52:00,90.3,71.4,30.13,ENE,67,3.8,-999.0,54,-99.99,,,0.00,Acu-Link.com,2013-07-05 17:52:00,
2013-07-05 14:07:00,90.1,72.3,30.13,SW,225,3.8,-999.0,56,-99.99,,,0.00,Acu-Link.com,2013-07-05 18:07:00,
2013-07-05 14:22:00,89.6,73.3,30.12,SSE,157,2.2,-999.0,59,-99.99,,,0.00,Acu-Link.com,2013-07-05 18:22:00,
2013-07-05 14:37:00,89.4,71.6,30.12,NE,45,2.7,-999.0,56,-99.99,,,0.00,Acu-Link.com,2013-07-05 18:37:00,
2013-07-05 14:52:00,90.1,73.8,30.11,SSE,157,2.2,-999.0,59,-99.99,,,0.00,Acu-Link.com,2013-07-05 18:52:00,
2013-07-05 15:07:00,90.5,72.6,30.10,North,0,1.6,-999.0,56,-99.99,,,0.00,Acu-Link.com,2013-07-05 19:07:00,
2013-07-05 15:22:00,89.8,70.9,30.10,East,90,2.7,-999.0,54,-99.99,,,0.00,Acu-Link.com,2013-07-05 19:22:00,
2013-07-05 15:37:00,94.5,72.9,30.09,WNW,292,7.8,-999.0,50,-99.99,,,0.00,Acu-Link.com,2013-07-05 19:37:00,
2013-07-05 15:52:00,94.3,72.7,30.09,SSW,202,2.7,-999.0,50,-99.99,,,0.00,Acu-Link.com,2013-07-05 19:52:00,
2013-07-05 16:07:00,91.6,72.0,30.09,West,270,4.3,-999.0,53,-99.99,,,0.00,Acu-Link.com,2013-07-05 20:07:00,
2013-07-05 16:23:00,94.1,71.4,30.09,WNW,292,3.1,-999.0,48,-99.99,,,0.00,Acu-Link.com,2013-07-05 20:23:00,
2013-07-05 16:38:00,95.0,73.4,30.08,WNW,292,2.7,-999.0,50,-99.99,,,0.00,Acu-Link.com,2013-07-05 20:38:00,
2013-07-05 16:53:00,94.6,73.7,30.08,WNW,292,3.1,-999.0,51,-99.99,,,0.00,Acu-Link.com,2013-07-05 20:53:00,
2013-07-05 17:08:00,92.1,73.0,30.08,East,90,2.2,-999.0,54,-99.99,,,0.00,Acu-Link.com,2013-07-05 21:08:00,
2013-07-05 17:23:00,91.8,72.7,30.08,WNW,292,4.7,-999.0,54,-99.99,,,0.00,Acu-Link.com,2013-07-05 21:23:00,
2013-07-05 17:38:00,90.3,72.5,30.07,NW,315,2.2,-999.0,56,-99.99,,,0.00,Acu-Link.com,2013-07-05 21:38:00,
2013-07-05 17:53:00,89.6,71.3,30.06,ESE,112,1.1,-999.0,55,-99.99,,,0.00,Acu-Link.com,2013-07-05 21:53:00,
2013-07-05 18:08:00,88.5,71.3,30.06,South,180,1.1,-999.0,57,-99.99,,,0.00,Acu-Link.com,2013-07-05 22:08:00,
2013-07-05 18:23:00,87.6,70.5,30.06,SW,225,2.2,-999.0,57,-99.99,,,0.00,Acu-Link.com,2013-07-05 22:23:00,
2013-07-05 18:38:00,86.7,70.6,30.07,NNE,22,1.1,-999.0,59,-99.99,,,0.00,Acu-Link.com,2013-07-05 22:38:00,
2013-07-05 18:53:00,84.9,70.4,30.06,NW,315,0.0,-999.0,62,-99.99,,,0.00,Acu-Link.com,2013-07-05 22:53:00,
2013-07-05 19:08:00,83.5,70.0,30.07,SSW,202,1.1,-999.0,64,-99.99,,,0.00,Acu-Link.com,2013-07-05 23:08:00,
2013-07-05 19:23:00,82.4,69.9,30.06,North,0,1.6,-999.0,66,-99.99,,,0.00,Acu-Link.com,2013-07-05 23:23:00,
2013-07-05 19:38:00,81.1,70.4,30.07,NNE,22,0.0,-999.0,70,-99.99,,,0.00,Acu-Link.com,2013-07-05 23:38:00,
2013-07-05 19:53:00,80.4,70.5,30.07,West,270,2.2,-999.0,72,-99.99,,,0.00,Acu-Link.com,2013-07-05 23:53:00,
2013-07-05 20:08:00,79.7,69.9,30.06,NNE,22,1.6,-999.0,72,-99.99,,,0.00,Acu-Link.com,2013-07-06 00:08:00,
2013-07-05 20:23:00,79.3,70.3,30.05,NW,315,2.2,-999.0,74,-99.99,,,0.00,Acu-Link.com,2013-07-06 00:23:00,
2013-07-05 20:38:00,79.0,70.0,30.06,South,180,0.0,-999.0,74,-99.99,,,0.00,Acu-Link.com,2013-07-06 00:38:00,
2013-07-05 20:53:00,78.6,70.4,30.06,East,90,0.0,-999.0,76,-99.99,,,0.00,Acu-Link.com,2013-07-06 00:53:00,
2013-07-05 21:08:00,78.8,70.2,30.08,ENE,67,2.2,-999.0,75,-99.99,,,0.00,Acu-Link.com,2013-07-06 01:08:00,
2013-07-05 21:23:00,78.8,70.2,30.08,NE,45,1.1,-999.0,75,-99.99,,,0.00,Acu-Link.com,2013-07-06 01:23:00,
2013-07-05 21:38:00,78.3,70.4,30.09,East,90,0.0,-999.0,77,-99.99,,,0.00,Acu-Link.com,2013-07-06 01:38:00,
2013-07-05 21:53:00,77.9,70.5,30.08,SSE,157,0.0,-999.0,78,-99.99,,,0.00,Acu-Link.com,2013-07-06 01:53:00,
2013-07-05 22:08:00,77.2,71.2,30.08,NW,315,2.2,-999.0,82,-99.99,,,0.00,Acu-Link.com,2013-07-06 02:08:00,
2013-07-05 22:23:00,77.0,71.4,30.10,West,270,0.0,-999.0,83,-99.99,,,0.00,Acu-Link.com,2013-07-06 02:23:00,
2013-07-05 22:38:00,76.5,71.3,30.08,NNW,337,0.0,-999.0,84,-99.99,,,0.00,Acu-Link.com,2013-07-06 02:38:00,
2013-07-05 23:09:00,74.7,70.9,30.09,NNE,22,0.0,-999.0,88,-99.99,,,0.00,Acu-Link.com,2013-07-06 03:09:00,
2013-07-05 23:24:00,73.8,70.6,30.09,SSE,157,0.0,-999.0,90,-99.99,,,0.00,Acu-Link.com,2013-07-06 03:24:00,
2013-07-05 23:39:00,72.9,70.4,30.10,ESE,112,0.0,-999.0,92,-99.99,,,0.00,Acu-Link.com,2013-07-06 03:39:00,
2013-07-05 23:54:00,72.3,70.5,30.10,North,0,0.0,-999.0,94,-99.99,,,0.00,Acu-Link.com,2013-07-06 03:54:00,